Location: Unspecified
(0.0000°N, 0.0000°E)
Time: 11:37:42
(UTC+00:00)

NUDT-PHONESAT - Visible Passes

Search period start: 19 January 2018 00:00
Search period end: 29 January 2018 00:00
Orbit: 494 x 513 km, 97.4° (Epoch: 18 January)

Date Brightness Start Highest point End Pass type
(mag) Time Alt. Az. Time Alt. Az. Time Alt. Az.
21 Jan ? 05:36:40 10° NE 05:40:01 34° ESE 05:43:21 10° SSE visible
22 Jan ? 05:19:04 10° ENE 05:21:34 18° ESE 05:24:04 10° SE visible
22 Jan ? 18:43:27 10° SW 18:45:57 17° WSW 18:48:27 10° WNW visible
26 Jan ? 05:37:55 10° NNE 05:41:17 36° E 05:44:40 10° S visible
27 Jan ? 05:20:15 10° NE 05:22:50 18° ESE 05:25:25 10° SSE visible
27 Jan ? 18:44:50 10° SW 18:47:13 16° WSW 18:49:37 10° WNW visible
